Location: Lone Pine Community Mobile Home Park
(42.7367°N, 73.8567°W)
Time: 05:30:34
(UTC+00:00)

BREEZE-M R/B - Pass Details

Date: 29 October 2020
Orbit: 284 x 23018 km, 49.2° (Epoch: 27 November)

Event Time Altitude Azimuth Distance (km) Brightness Sun altitude
Rises 22:48:46 0° 276° (W) 7,696 10.9 -11.1°
Reaches altitude 10° 22:56:31 10° 283° (WNW) 4,336 9.1 -12.5°
Maximum altitude 23:04:14 37° 350° (N) 1,028 4.7 -13.9°
Enters shadow 23:05:59 20° 48° (NE) 1,159 4.5 -14.2°
